AFR1276 LFMN-LSGG

Flight info

Callsign AFR1276
Flight time 0h 39m
Altitude 24000
Route IRMAR DCT KINES
Aircraft A320/M-SDE2E3FGHIJ4RWY/HB1D1G1

Departure

Time 2026-05-05 12:38
Airport Nice-Côte d'Azur Airport (LFMN)

Arrival

Time 2026-05-05 13:17
Airport Geneva International Airport (LSGG)
Time Latitude Longitude Altitude Speed Heading
2026-05-05 12:35 43.64995 7.20481 22 ft 17 kts 228°
2026-05-05 12:35 43.64946 7.20395 22 ft 16 kts 227°
2026-05-05 12:36 43.64870 7.20295 21 ft 14 kts 222°
2026-05-05 12:36 43.64786 7.20273 22 ft 11 kts 162°
2026-05-05 12:36 43.64758 7.20357 23 ft 11 kts 74°
2026-05-05 12:36 43.64773 7.20385 24 ft 0 kts 48°
2026-05-05 12:37 43.64777 7.20392 23 ft 6 kts 47°
2026-05-05 12:37 43.65011 7.20719 23 ft 94 kts 45°
2026-05-05 12:37 43.65654 7.21626 125 ft 156 kts 46°
2026-05-05 12:38 43.66235 7.22838 958 ft 159 kts 81°
2026-05-05 12:38 43.66061 7.24353 1758 ft 167 kts 115°
2026-05-05 12:38 43.65384 7.25636 2481 ft 166 kts 130°
2026-05-05 12:38 43.64644 7.26880 3061 ft 172 kts 128°
2026-05-05 12:39 43.63872 7.28248 3475 ft 187 kts 131°
2026-05-05 12:39 43.62990 7.29563 4124 ft 188 kts 135°
2026-05-05 12:39 43.62062 7.30934 4480 ft 207 kts 138°
2026-05-05 12:39 43.60684 7.31784 4553 ft 236 kts 178°
2026-05-05 12:40 43.59044 7.31166 4867 ft 260 kts 213°
2026-05-05 12:40 43.57633 7.29472 5503 ft 271 kts 223°
2026-05-05 12:40 43.56193 7.27821 6594 ft 269 kts 216°
2026-05-05 12:40 43.54838 7.26074 7523 ft 268 kts 238°
2026-05-05 12:41 43.54428 7.23612 8488 ft 269 kts 274°
2026-05-05 12:41 43.55198 7.21282 9496 ft 274 kts 309°
2026-05-05 12:41 43.56756 7.19760 10508 ft 274 kts 324°
2026-05-05 12:41 43.58332 7.18344 11454 ft 266 kts 314°
2026-05-05 12:42 43.59602 7.16556 12356 ft 258 kts 301°
2026-05-05 12:42 43.60190 7.15460 12859 ft 254 kts 297°
2026-05-05 12:42 43.61337 7.13598 13729 ft 260 kts 312°
2026-05-05 12:42 43.62346 7.12581 14044 ft 275 kts 323°
2026-05-05 12:43 43.64165 7.11391 14252 ft 303 kts 332°
2026-05-05 12:43 43.66218 7.10318 14422 ft 328 kts 336°
2026-05-05 12:43 43.68453 7.09289 14575 ft 351 kts 338°
2026-05-05 12:43 43.70869 7.08250 14709 ft 374 kts 339°
2026-05-05 12:44 43.73421 7.07178 14823 ft 395 kts 339°
2026-05-05 12:44 43.76100 7.06049 15037 ft 409 kts 339°
2026-05-05 12:44 43.78855 7.04872 15511 ft 416 kts 339°
2026-05-05 12:44 43.81633 7.03663 16084 ft 420 kts 338°
2026-05-05 12:45 43.84434 7.02428 16563 ft 425 kts 338°
2026-05-05 12:45 43.87260 7.01166 17017 ft 429 kts 338°
2026-05-05 12:45 43.90112 6.99888 17616 ft 433 kts 338°
2026-05-05 12:45 43.92991 6.98600 18201 ft 436 kts 338°
2026-05-05 12:46 43.95887 6.97302 18719 ft 439 kts 338°
2026-05-05 12:46 43.98802 6.95997 19228 ft 442 kts 338°
2026-05-05 12:46 44.01734 6.94688 19745 ft 444 kts 336°
2026-05-05 12:46 44.04674 6.93373 20211 ft 447 kts 336°
2026-05-05 12:47 44.07646 6.92041 20666 ft 450 kts 336°
2026-05-05 12:47 44.10627 6.90705 21130 ft 452 kts 336°
2026-05-05 12:47 44.13653 6.89419 21541 ft 458 kts 340°
2026-05-05 12:47 44.16818 6.88648 21982 ft 466 kts 348°
2026-05-05 12:48 44.20050 6.88179 22438 ft 467 kts 348°
2026-05-05 12:48 44.23281 6.87703 22827 ft 469 kts 348°
2026-05-05 12:48 44.26529 6.87218 23188 ft 471 kts 348°
2026-05-05 12:48 44.29837 6.86716 23576 ft 472 kts 348°
2026-05-05 12:49 44.33109 6.86217 23855 ft 474 kts 347°
2026-05-05 12:49 44.36398 6.85708 23945 ft 479 kts 348°
2026-05-05 12:49 44.39747 6.85187 23956 ft 488 kts 348°
2026-05-05 12:49 44.43133 6.84665 23964 ft 491 kts 348°
2026-05-05 12:50 44.46529 6.84147 23990 ft 492 kts 348°
2026-05-05 12:50 44.49933 6.83633 23941 ft 493 kts 348°
2026-05-05 12:50 44.53347 6.83119 23950 ft 493 kts 348°
2026-05-05 12:50 44.56751 6.82602 23962 ft 493 kts 348°
2026-05-05 12:51 44.60160 6.82084 23949 ft 493 kts 348°
2026-05-05 12:51 44.63577 6.81563 23960 ft 493 kts 348°
2026-05-05 12:51 44.66980 6.81046 23942 ft 492 kts 348°
2026-05-05 12:51 44.70385 6.80528 23964 ft 493 kts 348°
2026-05-05 12:52 44.73789 6.80008 23952 ft 493 kts 348°
2026-05-05 12:52 44.77205 6.79484 23956 ft 493 kts 348°
2026-05-05 12:52 44.80614 6.78969 23972 ft 493 kts 349°
2026-05-05 12:52 44.84040 6.78576 23951 ft 494 kts 351°
2026-05-05 12:53 44.87474 6.78322 23970 ft 495 kts 353°
2026-05-05 12:53 44.90919 6.78157 23959 ft 496 kts 353°
2026-05-05 12:53 44.94370 6.78022 23964 ft 495 kts 353°
2026-05-05 12:53 44.97807 6.77876 23964 ft 495 kts 353°
2026-05-05 12:54 45.04697 6.77476 23973 ft 495 kts 352°
2026-05-05 12:54 45.08140 6.77237 23973 ft 495 kts 352°
2026-05-05 12:54 45.11574 6.76989 23979 ft 494 kts 352°
2026-05-05 12:55 45.15010 6.76739 23959 ft 494 kts 352°
2026-05-05 12:55 45.18449 6.76495 23970 ft 494 kts 352°
2026-05-05 12:55 45.21876 6.76261 23956 ft 494 kts 353°
2026-05-05 12:55 45.25320 6.76035 23964 ft 495 kts 353°
2026-05-05 12:56 45.28812 6.75811 23959 ft 496 kts 353°
2026-05-05 12:56 45.32250 6.75574 23959 ft 495 kts 351°
2026-05-05 12:56 45.35634 6.74878 23955 ft 490 kts 344°
2026-05-05 12:56 45.38989 6.73966 23960 ft 490 kts 345°
2026-05-05 12:57 45.42337 6.73049 23953 ft 490 kts 345°
2026-05-05 12:57 45.45692 6.72125 23954 ft 491 kts 345°
2026-05-05 12:57 45.49034 6.71207 23900 ft 489 kts 345°
2026-05-05 12:57 45.52349 6.70309 23134 ft 482 kts 345°
2026-05-05 12:58 45.55626 6.69436 22156 ft 476 kts 345°
2026-05-05 12:58 45.58867 6.68597 21320 ft 471 kts 346°
2026-05-05 12:58 45.62077 6.67780 20568 ft 466 kts 346°
2026-05-05 12:58 45.65250 6.66973 20113 ft 464 kts 346°
2026-05-05 12:59 45.68395 6.66164 19936 ft 464 kts 347°
2026-05-05 12:59 45.71574 6.65341 19956 ft 464 kts 346°
2026-05-05 12:59 45.74753 6.64511 19952 ft 464 kts 346°
2026-05-05 13:00 45.81082 6.62818 19820 ft 459 kts 346°
2026-05-05 13:00 45.84166 6.61981 19475 ft 444 kts 346°
2026-05-05 13:01 45.93119 6.59540 18005 ft 432 kts 346°
2026-05-05 13:01 45.96073 6.58732 17922 ft 432 kts 346°
2026-05-05 13:01 45.99014 6.57877 17784 ft 428 kts 342°
2026-05-05 13:01 46.01801 6.56492 17113 ft 420 kts 332°
2026-05-05 13:02 46.04336 6.54495 16408 ft 412 kts 323°
2026-05-05 13:02 46.06579 6.51973 15753 ft 406 kts 313°
2026-05-05 13:02 46.08489 6.49062 15195 ft 397 kts 305°
2026-05-05 13:02 46.10158 6.45909 14625 ft 391 kts 302°
2026-05-05 13:03 46.11689 6.42779 14207 ft 369 kts 300°
2026-05-05 13:03 46.13081 6.39800 14081 ft 339 kts 299°
2026-05-05 13:03 46.14323 6.37096 13929 ft 317 kts 298°
2026-05-05 13:03 46.15526 6.34472 13455 ft 306 kts 300°
2026-05-05 13:04 46.16918 6.32156 12836 ft 308 kts 315°
2026-05-05 13:04 46.18753 6.30548 12206 ft 312 kts 337°
2026-05-05 13:04 46.20895 6.30060 11589 ft 316 kts
2026-05-05 13:04 46.23012 6.30833 10951 ft 316 kts 26°
2026-05-05 13:05 46.24760 6.32715 10313 ft 312 kts 47°
2026-05-05 13:05 46.26268 6.34959 9654 ft 311 kts 47°
2026-05-05 13:05 46.27772 6.37195 8962 ft 308 kts 46°
2026-05-05 13:05 46.29252 6.39388 8337 ft 303 kts 47°
2026-05-05 13:06 46.30680 6.41494 8143 ft 282 kts 47°
2026-05-05 13:06 46.32006 6.43453 7823 ft 268 kts 47°
2026-05-05 13:06 46.33301 6.45369 7297 ft 265 kts 47°
2026-05-05 13:06 46.34564 6.47240 7007 ft 254 kts 47°
2026-05-05 13:07 46.35817 6.49100 7022 ft 261 kts 47°
2026-05-05 13:07 46.37088 6.50976 7010 ft 264 kts 44°
2026-05-05 13:07 46.38635 6.52343 7012 ft 259 kts 16°
2026-05-05 13:07 46.40345 6.52556 7000 ft 239 kts 348°
2026-05-05 13:08 46.41833 6.51772 7000 ft 221 kts 322°
2026-05-05 13:08 46.42962 6.50345 7002 ft 215 kts 310°
2026-05-05 13:08 46.44024 6.48823 7004 ft 215 kts 310°
2026-05-05 13:08 46.45050 6.47264 7032 ft 210 kts 299°
2026-05-05 13:09 46.45575 6.45435 7012 ft 185 kts 272°
2026-05-05 13:09 46.45521 6.43689 7019 ft 165 kts 249°
2026-05-05 13:09 46.45066 6.42237 7009 ft 155 kts 231°
2026-05-05 13:09 46.44338 6.41085 7008 ft 154 kts 223°
2026-05-05 13:10 46.43598 6.40005 6999 ft 150 kts 222°
2026-05-05 13:10 46.42850 6.38926 6834 ft 152 kts 221°
2026-05-05 13:10 46.42123 6.37895 6690 ft 138 kts 222°
2026-05-05 13:10 46.41453 6.36912 6555 ft 131 kts 221°
2026-05-05 13:11 46.40813 6.35991 6376 ft 130 kts 220°
2026-05-05 13:11 46.40151 6.35088 6065 ft 130 kts 219°
2026-05-05 13:11 46.39482 6.34171 5705 ft 133 kts 221°
2026-05-05 13:11 46.38852 6.33171 5345 ft 137 kts 225°
2026-05-05 13:12 46.38232 6.32130 4998 ft 137 kts 225°
2026-05-05 13:12 46.37593 6.31103 4736 ft 137 kts 223°
2026-05-05 13:12 46.36915 6.30144 4625 ft 136 kts 219°
2026-05-05 13:12 46.36237 6.29185 4528 ft 136 kts 223°
2026-05-05 13:13 46.35605 6.28181 4418 ft 136 kts 223°
2026-05-05 13:13 46.34946 6.27207 4240 ft 134 kts 221°
2026-05-05 13:13 46.34304 6.26239 4020 ft 133 kts 221°
2026-05-05 13:13 46.33647 6.25279 3844 ft 136 kts 222°
2026-05-05 13:14 46.32973 6.24327 3691 ft 136 kts 222°
2026-05-05 13:14 46.32305 6.23358 3593 ft 133 kts 221°
2026-05-05 13:14 46.31658 6.22410 3406 ft 132 kts 222°
2026-05-05 13:14 46.31028 6.21459 3136 ft 131 kts 223°
2026-05-05 13:15 46.30404 6.20511 2900 ft 131 kts 224°
2026-05-05 13:15 46.29761 6.19578 2722 ft 132 kts 223°
2026-05-05 13:15 46.29326 6.18956 2580 ft 133 kts 221°
2026-05-05 13:15 46.28665 6.17988 2443 ft 135 kts 224°
2026-05-05 13:16 46.27987 6.17001 2216 ft 139 kts 223°
2026-05-05 13:16 46.27296 6.16022 2055 ft 140 kts 221°
2026-05-05 13:16 46.26613 6.15038 1877 ft 136 kts 224°
2026-05-05 13:16 46.25959 6.14052 1691 ft 133 kts 223°
2026-05-05 13:17 46.25303 6.13101 1497 ft 136 kts 223°
2026-05-05 13:17 46.24644 6.12127 1379 ft 134 kts 224°
2026-05-05 13:17 46.24100 6.11336 1375 ft 72 kts 226°
2026-05-05 13:17 46.23897 6.11079 1379 ft 21 kts 198°
2026-05-05 13:18 46.23759 6.11090 1382 ft 18 kts 173°
2026-05-05 13:18 46.23654 6.11011 1383 ft 11 kts 226°
2026-05-05 13:18 46.23596 6.10934 1381 ft 12 kts 224°
2026-05-05 13:18 46.23544 6.10930 1382 ft 8 kts 146°
2026-05-05 13:19 46.23502 6.10989 1383 ft 8 kts 134°
2026-05-05 13:19 46.23477 6.11052 1384 ft 7 kts 133°
2026-05-05 13:19 46.23447 6.11093 1385 ft 5 kts 137°
2026-05-05 13:19 46.23426 6.11122 1383 ft 2 kts 136°
2026-05-05 13:20 46.23421 6.11128 1381 ft 0 kts 135°
2026-05-05 13:29 46.23421 6.11129 1385 ft 0 kts 136°